Latest Weather Observations for Mackay Airport

IDQ60801

Issued at 12:35 pm EST Friday 18 April 2014 (issued every 30 minutes, with the page automatically refreshed every 10 minutes)

About weather observations | Map of weather stations | Latest weather observations for QLD | Other Formats
Station Details ID: 033045 Name: MACKAY AERO Lat: -21.17 Lon: 149.18 Height: 4.7 m
Data from the previous 72 hours. | See also: Recent months at Mackay Airport
Date/Time
EST
Temp
°C
App
Temp
°C
Dew
Point
Rel
Hum
%
Delta-T
°C
Wind Press
QNH
hPa
Press
MSL
hPa
Rain
since 9 am
mm
Dir
 
Spd
km/h
Gust
km/h
Spd
kts
Gust
kts
18/12:30pm 27.4 28.1 20.5 66 4.5 E 17 22 9 12 1015.0 - 0.0
18/12:00pm 27.5 28.7 21.5 70 4.0 ENE 17 22 9 12 1015.4 1015.4 0.0
18/11:30am 27.8 29.4 22.1 71 3.8 E 17 24 9 13 1015.9 - 0.0
18/11:00am 27.2 28.8 20.8 68 4.2 E 13 19 7 10 1016.3 - 0.0
18/10:30am 26.7 28.2 20.5 69 4.1 E 13 17 7 9 1016.7 - 0.0
18/10:00am 27.4 29.6 21.2 69 4.1 E 11 17 6 9 1016.8 - 0.0
18/09:30am 26.6 29.6 20.9 71 3.8 S 6 13 3 7 1016.9 - 0.0
18/09:00am 25.3 28.4 21.0 77 2.8 SW 6 7 3 4 1017.0 1017.0 0.0
18/08:30am 24.5 27.8 21.8 85 1.8 SW 7 9 4 5 1016.9 - 0.0
18/08:00am 23.0 25.7 21.3 90 1.1 WSW 9 11 5 6 1016.8 - 0.0
18/07:30am 21.4 24.1 20.6 95 0.5 WSW 7 9 4 5 1016.7 - 0.0
18/07:00am 21.1 23.6 20.3 95 0.5 WSW 7 7 4 4 1016.5 - 0.0
18/06:30am 21.1 23.2 20.1 94 0.6 SW 9 11 5 6 1016.1 - 0.0
18/06:00am 21.3 24.0 20.3 94 0.6 SW 6 9 3 5 1015.8 1015.8 0.0
18/05:30am 21.5 24.1 20.5 94 0.6 SW 7 9 4 5 1015.5 - 0.0
18/05:00am 21.6 25.6 20.6 94 0.6 CALM 0 0 0 0 1015.4 - 0.0
18/04:30am 21.3 23.9 20.5 95 0.5 SW 7 9 4 5 1015.5 - 0.0
18/04:00am 21.3 23.2 20.5 95 0.5 SSW 11 15 6 8 1015.6 - 0.0
18/03:30am 21.1 22.9 20.4 96 0.5 NE 11 13 6 7 1015.6 - 0.0
18/03:00am 20.9 24.7 20.1 95 0.5 CALM 0 6 0 3 1015.3 1015.3 0.0
18/02:30am 20.9 23.5 20.1 95 0.5 NE 6 7 3 4 1015.7 - 0.0
18/02:00am 21.1 23.3 20.3 95 0.5 NE 9 11 5 6 1015.9 - 0.0
18/01:30am 21.1 23.0 19.7 92 0.9 NE 9 11 5 6 1016.0 - 0.0
18/01:00am 21.7 23.9 20.5 93 0.8 NE 9 11 5 6 1016.2 - 0.0
18/12:30am 21.7 24.4 20.3 92 0.9 NE 6 7 3 4 1016.5 - 0.0
18/12:00am 21.8 25.3 20.4 92 0.9 NE 2 7 1 4 1016.8 1016.8 0.0
 
Date/Time
EST
Temp
°C
App
Temp
°C
Dew
Point
Rel
Hum
%
Delta-T
°C
Wind Press
QNH
hPa
Press
MSL
hPa
Rain
since 9 am
mm
Dir
 
Spd
km/h
Gust
km/h
Spd
kts
Gust
kts
17/11:30pm 22.1 24.8 20.7 92 0.9 NE 7 9 4 5 1017.1 - 0.0
17/11:00pm 21.9 24.5 20.5 92 0.9 NE 7 9 4 5 1017.2 - 0.0
17/10:30pm 22.5 25.6 21.0 91 1.0 NE 6 6 3 3 1017.3 - 0.0
17/10:00pm 22.3 24.9 20.4 89 1.2 NE 7 7 4 4 1017.2 - 0.0
17/09:30pm 21.9 24.3 19.6 87 1.5 NE 6 9 3 5 1017.4 - 0.0
17/09:00pm 22.8 25.4 20.0 84 1.8 NE 6 7 3 4 1017.2 1017.2 0.0
17/08:30pm 23.2 25.7 20.3 84 1.9 NE 7 9 4 5 1017.0 - 0.0
17/08:00pm 23.5 26.0 20.2 82 2.1 NE 7 7 4 4 1016.6 - 0.0
17/07:30pm 24.0 26.7 20.7 82 2.2 NE 7 9 4 5 1016.1 - 0.0
17/07:00pm 24.3 26.5 20.4 79 2.5 NE 9 11 5 6 1015.8 - 0.0
17/06:30pm 24.3 26.9 20.4 79 2.5 ENE 7 11 4 6 1015.4 - 0.0
17/06:00pm 24.7 26.9 20.4 77 2.8 ENE 9 13 5 7 1015.0 1015.0 0.0
17/05:30pm 25.5 27.1 19.9 71 3.6 ENE 11 15 6 8 1014.8 - 0.0
17/05:00pm 26.1 27.1 20.2 70 3.8 ENE 15 19 8 10 1014.6 - 0.0
17/04:30pm 26.2 27.0 19.8 68 4.2 ENE 15 19 8 10 1014.6 - 0.0
17/04:00pm 26.1 27.3 20.7 72 3.5 E 15 19 8 10 1014.4 - 0.0
17/03:30pm 26.5 27.9 21.0 72 3.6 E 15 20 8 11 1014.6 - 0.0
17/03:00pm 26.6 27.8 21.4 73 3.5 E 17 20 9 11 1014.6 1014.6 0.0
17/02:30pm 26.9 28.0 21.2 71 3.8 E 17 22 9 12 1014.7 - 0.0
17/02:00pm 26.8 27.4 20.2 67 4.3 E 17 20 9 11 1014.9 - 0.0
17/01:30pm 27.3 27.8 20.1 64 4.7 E 17 24 9 13 1015.1 - 0.0
17/01:00pm 27.5 28.4 20.8 67 4.4 ENE 17 24 9 13 1015.5 - 0.0
17/12:30pm 27.5 28.0 20.8 67 4.4 E 19 24 10 13 1015.9 - 0.0
17/12:00pm 27.4 28.4 21.0 68 4.2 E 17 22 9 12 1016.2 1016.2 0.0
17/11:30am 28.0 29.4 21.8 69 4.2 E 17 22 9 12 1016.6 - 0.0
17/11:00am 27.8 29.7 22.1 71 3.8 E 15 22 8 12 1017.2 - 0.0
17/10:30am 27.2 28.6 21.9 73 3.6 E 17 22 9 12 1017.6 - 0.0
17/10:00am 27.1 29.1 22.3 75 3.2 ESE 15 20 8 11 1017.8 - 0.0
17/09:30am 26.6 28.5 21.4 73 3.5 ESE 13 17 7 9 1017.6 - 0.0
17/09:00am 25.8 28.4 21.2 76 3.0 SE 9 17 5 9 1017.5 1017.5 0.0
17/08:30am 25.0 27.7 22.1 84 1.9 S 11 15 6 8 1017.2 - 0.0
17/08:00am 23.6 26.6 21.9 90 1.1 SSW 9 11 5 6 1016.8 - 0.0
17/07:30am 22.5 25.3 21.5 94 0.7 SW 9 11 5 6 1016.7 - 0.0
17/07:00am 21.3 23.6 20.6 96 0.5 SW 9 11 5 6 1016.3 - 0.0
17/06:30am 20.6 22.7 20.1 97 0.3 SW 9 13 5 7 1016.0 - 0.0
17/06:00am 20.4 22.4 19.9 97 0.3 SW 9 11 5 6 1015.7 1015.7 0.0
17/05:30am 20.6 22.7 20.1 97 0.3 SW 9 11 5 6 1015.3 - 0.0
17/05:00am 21.1 23.4 20.6 97 0.3 SW 9 11 5 6 1015.0 - 0.0
17/04:30am 21.1 23.3 20.4 96 0.5 SSW 9 11 5 6 1015.0 - 0.0
17/04:00am 20.9 23.4 20.2 96 0.4 SW 7 9 4 5 1014.9 - 0.0
17/03:30am 21.0 23.5 20.2 95 0.5 SW 7 9 4 5 1014.7 - 0.0
17/03:00am 21.3 23.8 20.3 94 0.6 NE 7 9 4 5 1014.7 1014.7 0.0
17/02:30am 21.9 24.3 20.9 94 0.7 NE 9 9 5 5 1014.9 - 0.0
17/02:00am 22.2 25.2 21.2 94 0.7 NE 7 9 4 5 1014.9 - 0.0
17/01:30am 22.1 24.9 20.9 93 0.8 NE 7 9 4 5 1015.1 - 0.0
17/01:00am 22.3 25.2 21.1 93 0.8 NE 7 9 4 5 1015.3 - 0.0
17/12:30am 22.6 25.2 21.2 92 0.9 NE 9 11 5 6 1015.6 - 0.0
17/12:00am 22.7 27.0 21.2 91 1.0 CALM 0 2 0 1 1015.5 1015.5 0.0
 
Date/Time
EST
Temp
°C
App
Temp
°C
Dew
Point
Rel
Hum
%
Delta-T
°C
Wind Press
QNH
hPa
Press
MSL
hPa
Rain
since 9 am
mm
Dir
 
Spd
km/h
Gust
km/h
Spd
kts
Gust
kts
16/11:30pm 22.7 25.7 21.2 91 1.0 ENE 7 9 4 5 1015.4 - 0.0
16/11:00pm 22.8 25.8 21.3 91 1.0 ENE 7 9 4 5 1015.7 - 0.0
16/10:30pm 22.8 25.8 21.3 91 1.0 ENE 7 9 4 5 1015.7 - 0.0
16/10:00pm 23.0 26.0 20.9 88 1.4 ENE 6 7 3 4 1015.8 - 0.0
16/09:30pm 23.1 26.3 20.6 86 1.6 ENE 4 7 2 4 1015.8 - 0.0
16/09:00pm 24.2 26.9 20.7 81 2.3 ENE 7 9 4 5 1015.7 1015.7 0.0
16/08:30pm 24.5 27.3 20.8 80 2.4 NE 7 9 4 5 1015.4 - 0.0
16/08:00pm 24.5 26.9 20.8 80 2.4 NE 9 11 5 6 1015.2 - 0.0
16/07:30pm 24.8 27.1 20.7 78 2.7 ENE 9 11 5 6 1014.8 - 0.0
16/07:00pm 24.8 26.8 20.7 78 2.7 ENE 11 15 6 8 1014.4 - 0.0
16/06:30pm 24.6 26.5 20.5 78 2.7 ENE 11 17 6 9 1014.0 - 0.0
16/06:00pm 24.9 26.5 20.8 78 2.7 E 13 17 7 9 1013.6 1013.6 0.0
16/05:30pm 25.5 26.5 20.3 73 3.4 E 15 19 8 10 1013.6 - 0.0
16/05:00pm 26.0 27.2 20.6 72 3.5 E 15 19 8 10 1013.4 - 0.0
16/04:30pm 26.4 26.7 20.5 70 3.9 E 19 22 10 12 1013.2 - 0.0
16/04:00pm 26.8 27.4 21.1 71 3.8 E 19 22 10 12 1013.2 - 0.0
16/03:30pm 27.2 28.1 21.5 71 3.8 E 19 24 10 13 1013.3 - 0.0
16/03:00pm 27.3 28.1 20.6 67 4.4 E 17 20 9 11 1013.3 1013.3 0.0
16/02:30pm 27.5 27.9 20.6 66 4.5 E 19 24 10 13 1013.3 - 0.0
16/02:00pm 27.9 28.6 21.2 67 4.5 E 19 24 10 13 1013.5 - 0.0
16/01:30pm 27.9 28.9 21.0 66 4.6 E 17 24 9 13 1013.7 - 0.0
16/01:00pm 27.3 27.7 20.6 67 4.4 E 19 24 10 13 1014.0 - 0.0
16/12:30pm 27.8 28.8 21.1 67 4.4 E 17 22 9 12 1014.3 - 0.0
16/12:00pm 27.4 27.7 19.7 63 5.0 E 17 22 9 12 1014.7 1014.7 0.0
16/11:30am 27.4 27.7 20.5 66 4.5 E 19 22 10 12 1015.1 - 0.0
16/11:00am 27.4 27.7 20.5 66 4.5 ESE 19 24 10 13 1015.5 - 0.0
16/10:30am 27.3 28.4 21.3 69 4.0 ESE 17 22 9 12 1015.8 - 0.0
16/10:00am 27.0 29.4 22.2 75 3.2 SE 13 17 7 9 1015.9 - 0.0
16/09:30am 25.6 29.4 21.7 79 2.6 SSW 4 9 2 5 1016.3 - 0.0
16/09:00am 25.0 28.2 21.7 82 2.2 SSW 7 9 4 5 1016.1 1016.1 0.0
16/08:30am 24.6 27.5 21.7 84 1.9 SSW 9 11 5 6 1015.7 - 0.0
16/08:00am 23.2 25.9 21.3 89 1.2 SW 9 11 5 6 1015.5 - 0.0
16/07:30am 22.0 25.0 21.2 95 0.5 WSW 7 9 4 5 1015.6 - 0.0
16/07:00am 20.9 23.6 20.6 98 0.2 WSW 7 9 4 5 1015.5 - 0.0
16/06:30am 19.7 21.9 19.2 97 0.3 WSW 6 7 3 4 1015.1 - 0.0
16/06:00am 20.0 21.8 19.5 97 0.3 WSW 9 11 5 6 1015.0 1015.0 0.0
16/05:30am 20.1 22.3 19.6 97 0.3 WSW 7 11 4 6 1014.8 - 0.0
16/05:00am 20.2 22.1 19.7 97 0.3 WSW 9 11 5 6 1014.5 - 0.0
16/04:30am 20.0 21.8 19.5 97 0.3 WSW 9 9 5 5 1014.4 - 0.0
16/04:00am 20.4 22.3 19.7 96 0.4 WSW 9 11 5 6 1014.2 - 0.0
16/03:30am 20.5 22.4 19.8 96 0.4 WSW 9 9 5 5 1014.0 - 0.0
16/03:00am 20.5 22.7 19.7 95 0.5 WSW 7 9 4 5 1014.0 1014.0 0.0
16/02:30am 20.8 22.9 20.1 96 0.4 SW 9 11 5 6 1014.0 - 0.0
16/02:00am 21.1 23.3 20.4 96 0.5 SW 9 11 5 6 1014.1 - 0.0
16/01:30am 21.2 23.1 20.5 96 0.5 SSW 11 11 6 6 1014.3 - 0.0
16/01:00am 21.1 22.9 20.3 95 0.5 SSW 11 13 6 7 1014.6 - 0.0
16/12:30am 21.1 23.1 19.9 93 0.8 S 9 11 5 6 1014.8 - 0.0
16/12:00am 21.9 23.8 20.5 92 0.9 SSW 11 15 6 8 1014.9 1014.9 0.0
 
Date/Time
EST
Temp
°C
App
Temp
°C
Dew
Point
Rel
Hum
%
Delta-T
°C
Wind Press
QNH
hPa
Press
MSL
hPa
Rain
since 9 am
mm
Dir
 
Spd
km/h
Gust
km/h
Spd
kts
Gust
kts
15/11:30pm 21.9 24.5 20.5 92 0.9 SW 7 9 4 5 1014.9 - 0.0
15/11:00pm 22.4 25.2 20.9 91 1.0 WSW 7 7 4 4 1015.0 - 0.0
15/10:30pm 22.5 25.3 20.8 90 1.1 WSW 7 9 4 5 1015.2 - 0.0
15/10:00pm 22.6 25.5 21.1 91 1.0 WSW 7 11 4 6 1015.2 - 0.0
15/09:30pm 22.6 25.0 20.9 90 1.1 SSW 9 13 5 7 1015.0 - 0.0
15/09:00pm 22.4 25.0 20.5 89 1.2 SSW 7 11 4 6 1014.9 1014.9 0.0
15/08:30pm 23.9 25.5 20.8 83 2.0 ESE 13 17 7 9 1014.6 - 0.0
15/08:00pm 24.1 25.5 21.0 83 2.0 ESE 15 17 8 9 1014.3 - 0.0
15/07:30pm 24.3 25.5 20.6 80 2.4 ESE 15 17 8 9 1014.0 - 0.0
15/07:00pm 24.1 25.5 20.4 80 2.4 ESE 13 19 7 10 1013.6 - 0.0
15/06:30pm 24.4 25.2 20.7 80 2.4 SE 17 20 9 11 1013.4 - 0.0
15/06:00pm 24.4 25.8 21.1 82 2.2 SE 15 19 8 10 1013.2 1013.2 0.0
15/05:30pm 24.9 25.4 20.8 78 2.7 SE 19 24 10 13 1013.1 - 0.0
15/05:00pm 25.2 25.7 21.1 78 2.7 ESE 20 24 11 13 1012.6 - 0.0
15/04:30pm 25.5 25.4 20.7 75 3.1 ESE 22 28 12 15 1012.4 - 0.0
15/04:00pm 26.2 26.1 20.7 71 3.6 ESE 22 28 12 15 1012.3 - 0.0
15/03:30pm 26.1 25.9 21.3 75 3.2 SE 24 30 13 16 1012.2 - 0.0
15/03:00pm 26.3 25.5 20.8 71 3.6 SE 26 32 14 17 1012.3 1012.3 0.0
15/02:30pm 26.4 26.2 21.2 73 3.4 SE 24 30 13 16 1012.3 - 0.0
15/02:00pm 26.7 26.7 21.7 74 3.3 SE 24 30 13 16 1012.4 - 0.0
15/01:30pm 26.8 26.5 21.1 71 3.8 ESE 24 30 13 16 1012.5 - 0.0
15/01:00pm 27.0 27.4 21.7 73 3.5 ESE 22 28 12 15 1012.9 - 0.0

Other Formats:

Comma delimited format used in spreadsheet applications
http://www.bom.gov.au/fwo/IDQ60801/IDQ60801.95367.axf

JavaScript Object Notation format (JSON) in row-major order
http://www.bom.gov.au/fwo/IDQ60801/IDQ60801.95367.json